Home > Weather > Astana > Past weeks

Flag for Kazakhstan Past Weather in Astana, Kazakhstan — Yesterday and Last 2 Weeks

Now
54 °F

Clear.


Feels Like: 54 °F
Forecast: 56 / 70 °F
Wind: No wind

Location: Astana

Current Time: Jul 31, 2016 at 6:37:15 AM

Latest Report: Jul 31, 2016 at 6:00 AM


Visibility: 10 mi

Pressure: 29.89 "Hg

Humidity: 88%

Dew Point: 50 °F

Location of AstanaLocation

Past Weather in Astana — Graph

°F

Astana Temperature Yesterday

Maximum temperature yesterday: 72 °F (at 6:30 PM)
Minimum temperature yesterday: 54 °F (at 2:00 AM)
Average temperature yesterday: 61 °F

High & Low Weather Summary for the Past Weeks

 TemperatureHumidityPressure
High79 °F (Jul 24, 4:30 PM)100% (Jul 17, 6:30 AM)29.86 "Hg (Jul 17, 6:30 AM)
Low52 °F (Jul 29, 5:30 AM)41% (Jul 20, 3:30 PM)29.45 "Hg (Jul 17, 9:30 AM)
Average65 °F78%29.66 "Hg
* Reported Jul 16 5:00 AM — Jul 31 5:00 AM, Astana, Weather by CustomWeather, © 2016

Note: Actual official high and low records may vary slightly from our data, if they occured in-between our weather recording intervals... More about our weather records

Advertising

Astana Weather History for the Previous 24 Hours

Scroll right to see more
 ConditionsComfort  
Time TempWeatherWind HumidityBarometerVisibility
5:00 AM
Sun, Jul 31
54 °FClear.3 mph88%29.86 "Hg10 mi
4:30 AM55 °FClear.6 mph88%29.86 "Hg10 mi
4:00 AM55 °FClear.6 mph82%29.86 "Hg10 mi
3:30 AM55 °FClear.6 mph82%29.86 "Hg10 mi
3:00 AM57 °FClear.1 mph77%29.86 "Hg10 mi
2:30 AM57 °FClear.No wind77%29.86 "Hg10 mi
2:00 AM57 °FClear.No wind77%29.86 "Hg10 mi
1:30 AM57 °FPassing clouds.6 mph82%29.86 "HgN/A
1:00 AM57 °FClear.8 mph82%29.86 "Hg10 mi
12:30 AM57 °FClear.6 mph82%29.86 "Hg10 mi
12:00 AM57 °FClear.8 mph82%29.86 "Hg10 mi
11:30 PM
Sat, Jul 30
59 °FClear.6 mph77%29.86 "Hg10 mi
11:00 PM59 °FClear.6 mph77%29.86 "Hg10 mi
10:30 PM59 °FClear.8 mph77%29.86 "Hg10 mi
10:00 PM59 °FSunny.6 mph82%29.86 "Hg10 mi
9:30 PM61 °FSunny.6 mph77%29.83 "Hg10 mi
9:00 PM64 °FSunny.8 mph73%29.83 "Hg10 mi
8:30 PM66 °FPartly sunny.6 mph68%29.83 "HgN/A
8:00 PM68 °FPartly sunny.6 mph60%29.83 "HgN/A
7:30 PM70 °FBroken clouds.6 mph53%29.83 "HgN/A
7:00 PM70 °FBroken clouds.6 mph50%29.83 "HgN/A
6:30 PM72 °FBroken clouds.6 mph50%29.83 "HgN/A
6:00 PM70 °FBroken clouds.8 mph53%29.80 "HgN/A
5:30 PM70 °FBroken clouds.8 mph50%29.80 "HgN/A
5:00 PM70 °FBroken clouds.6 mph53%29.80 "HgN/A
4:30 PM68 °FBroken clouds.8 mph53%29.80 "HgN/A
4:00 PM68 °FBroken clouds.8 mph56%29.80 "HgN/A
3:30 PM68 °FBroken clouds.10 mph56%29.80 "HgN/A
3:00 PM66 °FBroken clouds.10 mph64%29.80 "HgN/A
2:30 PM64 °FBroken clouds.10 mph68%29.80 "HgN/A
2:00 PM63 °FSprinkles. Broken clouds.10 mph68%29.80 "HgN/A
1:30 PM63 °FBroken clouds.8 mph73%29.80 "HgN/A
1:00 PM61 °FSprinkles. Broken clouds.8 mph77%29.80 "HgN/A
12:30 PM63 °FBroken clouds.13 mph73%29.80 "HgN/A
12:00 PM63 °FBroken clouds.15 mph68%29.80 "HgN/A
11:30 AM64 °FPartly sunny.10 mph64%29.80 "HgN/A
11:00 AM64 °FBroken clouds.8 mph68%29.77 "HgN/A
10:30 AM61 °FSunny.8 mph77%29.77 "Hg10 mi
10:00 AM59 °FPartly sunny.6 mph88%29.77 "HgN/A
9:30 AM59 °FPartly sunny.6 mph88%29.77 "HgN/A
9:00 AM57 °FPassing clouds.3 mph94%29.77 "HgN/A
8:30 AM57 °FPassing clouds.3 mph88%29.77 "HgN/A
8:00 AM55 °FSunny.1 mph94%29.77 "Hg10 mi
7:30 AM55 °FSunny.1 mph88%29.74 "Hg10 mi
7:00 AM54 °FSunny.1 mph94%29.74 "Hg10 mi
6:30 AM54 °FClear.3 mph94%29.74 "Hg10 mi
6:00 AM54 °FClear.3 mph88%29.74 "Hg10 mi
Weather by CustomWeather, © 2016

See weather overviewHow to use our weather pages